Probability
0 0 0 0 0 0 0 0 0 0 0 0 0 0 0 0 0 0 0 0 0 0 0 0 0 0 0 0 0 0 0 0 0 0 0 0 0 0 0 0 0 0 0
0 0 0 0 0 0 0 0 0 0 0 0 0 0 0 0 0 0 0 0 0 0 0 0 0 0 0 0 0 0 0 0 0 0 0 0 0 0 0 0 0 0 0
0 0 0 0 0 0 0 0 0 0 0 0 0 0 0 0 0 0 0 0 0 0 0 0 0 0 0 0 0 0 0 0 0 0 0 0 0 0 0 0 0 0 0
0 0 0 0 0 0 0 0 0 0 0 0 0 0 0 0 0 0 0 0 0 0 0 0 0 0 0 0 0 0 0 0 0 0 0 0 0 0 0 0 0 0 0
0 0 0 0 0 0 0 0 0 0 0 0 0 0 0 0 0 0 0 0 0 0 0 0 0 0 0 0 0 0 0 0 0 0 0 0 0 0 0 0 0 0 0
0 0 0 0 0 0 0 0 0 0 0 0 0 0 0 0 0 0 0 0 0 0 0 0 0 0 0 0 0 0 0 0 0 0 0 0 0 0 0 0 0 0 0
0 0 0 0 0 0 0 0 0 0 0 0 0 0 0 0 0 0 0 0 0 0 0 0 0 0 0 0 0 0 0 0 0 0 0 0 0 0 0 0 0 0 0
0 0 0 0 0 0 0 0 0 0 0 0 0 0 0 0 0 0 0 0 0 0 0 0 0 0 0 0 0 0 0 0 0 0 0 0 0 0 0 0 0 0 0
0 0 0 0 0 0 0 0 0 0 0 0 0 0 0 0 0 0 0 0 0 0 0 0 0 0 0 0 0 0 0 0 0 0 0 0 0 0 0 0 0 0 0
0 0 0 0 0 0 0 0 0 0 0 0 0 0 0 0 0 0 0 0 0 0 0 0 0 0 0 0 0 0 0 0 0 0 0 0 0 0 0 0 0 0 0
0 0 0 0 0 0 0 0 0 0 0 0 0 0 0 0 0 0 0 0 0 0 0 0 0 0 0 0 0 0 0 0 0 0 0 0 0 0 0 0 0 0 0
0 0 0 0 0 0 0 0 0 0 0 0 0 0 0 0 0 0 0 0 0 0 0 0 0 0 0 0 0 0 0 0 0 0 0 0 0 0 0 0 0 0 0
0 0 0 0 0 0 0 0 0 0 0 0 0 0 0 0 0 0 0 0 0 0 0 0 0 0 0 0 0 0 0 0 0 0 0 0 0 0 0 0 0 0 0
0 0 0 0 0 0 0 0 0 0 0 0 0 0 0 0 0 0 0 0 0 0 0 0 0 0 0 0 0 0 0 0 0 0 0 0 0 0 0 0 0 0 0
0 0 0 0 0 0 0 0 0 0 0 0 0 0 0 0 0 0 0 0 0 0 0 0 0 0 0 0 0 0 0 0 0 0 0 0 0 0 0 0 0 0 0
0 0 0 0 0 0 0 0 0 0 0 0 0 0 0 0 0 0 0 0 0 0 0 0 0 0 0 0 0 0 0 0 0 0 0 0 0 0 0 0 0 0 0
0 0 0 0 0 0 0 0 0 0 0 0 0 0 0 0 0 0 0 0 0 0 0 0 0 0 0 0 0 0 0 0 0 0 0 0 0 0 0 0 0 0 0
0 0 0 0 0 0 0 0 0 0 0 0 0 0 0 0 0 0 0 0 0 0 0 0 0 0 0 0 0 0 0 0 0 0 0 0 0 0 0 0 0 0 0
0 0 0 0 0 0 0 0 0 0 0 0 0 0 0 0 0 0 0 0 0 0 0 0 0 0 0 0 0 0 0 0 0 0 0 0 0 0 0 0 0 0 0
0 0 0 0 0 0 0 0 0 0 0 0 0 0 0 0 0 0 0 0 0 0 0 0 0 0 0 0 0 0 0 0 0 0 0 0 0 0 0 0 0 0 0
0 0 0 0 0 0 0 0 0 0 0 0 0 0 0 0 0 0 0 0 0 0 0 0 0 0 0 0 0 0 0 0 0 0 0 0 0 0 0 0 0 0 0
0 0 0 0 0 0 0 0 0 0 0 0 0 0 0 0 0 0 0 0 0 0 0 0 0 0 0 0 0 0 0 0 0 0 0 0 0 0 0 0 0 0 0
0 0 0 0 0 0 0 0 0 0 0 0 0 0 0 0 0 0 0 0 0 0 0 0 0 0 0 0 0 0 0 0 0 0 0 0 0 0 0 0 0 0 0
0 0 0 0 0 0 0 0 0 0 0 0 0 0 0 0 0 0 0 0 0 0 0 0 0 0 0 0 0 0 0 0 0 0 0 0 0 0 0 0 0 0 0
0 0 0 0 0 0 0 0 0 0 0 0 0 0 0 0 0 0 0 0 0 0 0 0 0 0 0 0 0 0 0 0 0 0 0 0 0 0 0 0 0 0 0
0 0 0 0 0 0 0 0 0 0 0 0 0 0 0 0 0 0 0 0 0 0 0 0 0 0 0 0 0 0 0 0 0 0 0 0 0 0 0 0 0 0 0
Wind_Speed
6 5 4 4 4 3 3 4 4 5 5 5 6 6 7 7 7 7 7 18 22 23 24 24 23 23 22 22 21 21 21 20 18 15 14 12 12 11 10 10 11 11 11
7 6 6 5 4 4 4 4 5 5 4 4 6 7 7 7 8 9 8 12 22 24 25 25 25 24 24 24 23 23 22 22 22 21 20 17 15 14 12 11 11 11 12
8 7 6 5 4 4 5 5 5 5 5 5 6 7 7 8 9 10 9 8 9 19 24 25 25 25 24 24 24 23 24 24 24 24 24 22 21 19 17 15 13 13 13
8 8 7 6 5 4 5 5 4 5 5 5 5 6 6 7 10 10 9 9 8 9 15 24 24 25 25 25 24 24 24 24 24 24 24 24 24 24 22 21 19 17 15
8 8 7 5 5 5 5 5 5 4 5 5 6 6 6 7 7 9 10 10 9 9 8 16 22 23 24 25 25 25 24 24 24 24 24 25 25 25 25 24 23 22 20
8 9 7 6 6 6 6 5 6 6 4 4 7 8 6 6 6 7 8 8 8 10 9 10 9 13 22 24 24 25 25 25 24 24 25 25 25 26 26 25 24 24 23
8 8 8 7 6 7 6 5 4 7 7 3 4 5 5 5 6 5 5 6 9 9 9 9 8 7 9 20 23 25 25 25 25 25 25 26 26 26 26 26 26 25 25
7 8 8 7 6 7 7 6 5 4 5 5 3 3 2 3 3 4 4 6 7 6 9 10 8 9 8 7 16 25 26 26 26 26 26 26 27 27 27 27 27 27 26
8 8 9 8 7 7 7 6 5 6 5 5 5 3 4 1 2 3 4 5 6 5 6 6 8 9 10 9 9 18 26 26 27 27 27 28 28 28 28 28 27 27 27
8 8 8 8 8 7 7 6 5 4 5 3 4 5 4 3 2 3 4 4 6 5 6 6 6 7 8 8 12 21 25 25 26 27 28 28 28 28 28 28 28 28 27
6 7 7 8 8 7 7 7 7 6 4 4 3 3 4 4 4 2 2 5 5 4 4 4 3 5 6 8 9 17 24 25 26 27 27 28 28 28 28 28 28 28 28
5 6 7 7 7 7 7 7 7 8 6 6 5 3 3 3 2 2 1 2 3 4 5 3 3 4 5 7 12 22 23 25 27 27 27 27 27 28 28 28 28 28 28
5 6 7 6 6 6 6 6 7 6 5 6 5 4 3 3 2 2 1 1 3 3 4 3 1 3 6 6 9 22 20 25 26 27 27 27 27 27 28 28 28 28 28
6 7 7 7 7 7 7 6 6 5 5 5 5 4 3 3 2 1 1 0 2 3 3 4 2 2 5 6 12 20 13 24 26 26 26 27 27 28 27 28 28 28 28
8 8 8 8 7 7 7 6 5 5 5 4 4 4 3 2 2 2 1 1 1 3 4 3 2 2 4 5 13 9 11 21 25 25 26 27 27 27 27 28 28 28 28
9 10 8 8 7 7 6 6 5 5 5 4 3 4 3 2 2 1 1 1 1 2 4 4 3 3 5 8 14 10 11 23 22 24 26 26 26 27 27 27 27 27 27
10 10 10 9 8 7 6 6 5 5 5 4 3 3 3 2 2 1 1 1 1 1 5 6 3 4 5 7 10 8 9 9 10 22 25 26 27 27 27 27 27 27 27
10 10 9 9 8 7 7 7 7 6 6 5 5 4 4 3 3 2 2 2 2 3 4 8 6 4 6 8 10 11 10 10 9 20 24 27 27 27 27 28 28 28 28
10 9 9 10 9 8 7 7 7 6 6 6 5 5 5 4 4 3 4 3 3 4 4 6 9 6 6 7 11 11 9 8 10 15 22 23 25 27 28 29 29 28 28
11 11 10 9 8 8 8 7 7 6 6 6 6 6 5 6 5 5 4 5 4 5 5 7 9 9 8 8 8 10 12 8 10 12 16 18 22 25 27 29 29 28 27
11 10 9 8 7 7 7 8 8 7 7 6 6 6 6 8 9 7 5 5 5 4 4 5 8 9 9 9 9 10 13 13 12 9 9 10 12 12 14 19 23 25 27
9 9 10 10 9 8 14 17 11 7 7 8 8 7 7 7 10 13 13 12 10 6 5 5 8 10 11 10 10 11 13 14 12 6 11 14 12 12 11 10 21 28 28
10 10 10 10 10 12 18 18 18 9 8 8 8 7 6 6 7 7 10 13 12 14 14 9 10 11 11 11 13 15 13 14 15 14 13 15 11 12 11 14 26 29 29
10 10 10 11 10 12 19 18 18 10 8 9 9 8 8 7 8 8 7 8 9 9 11 9 9 10 10 11 11 12 12 12 14 11 11 12 12 12 12 12 23 27 25
10 10 8 10 11 12 18 19 17 7 8 10 9 9 9 9 13 16 10 9 10 9 13 16 16 15 18 18 15 7 6 7 10 10 7 7 8 12 12 12 13 21 24
10 9 8 9 10 10 15 18 18 6 7 8 7 9 12 15 16 17 11 9 11 9 7 7 8 10 10 11 13 8 5 6 7 8 5 6 9 11 10 7 9 12 15
Wind_Direction
125 113 101 88 81 78 82 80 74 69 60 55 56 60 58 58 58 55 47 49 48 44 40 36 33 29 26 22 19 16 13 11 8 3 355 349 346 335 330 330 330 331 331
119 115 105 93 81 78 78 76 74 72 62 59 58 58 62 65 65 63 56 49 49 46 41 36 32 29 26 23 20 18 15 14 13 10 4 356 346 340 328 322 320 319 320
111 111 104 93 82 79 79 74 67 64 60 58 57 59 68 71 72 66 60 54 45 42 40 35 31 27 25 23 20 19 17 16 14 11 8 3 357 349 341 329 319 313 311
105 104 100 92 85 78 74 72 61 64 56 59 65 65 71 74 72 68 62 54 46 39 32 33 29 25 23 21 19 18 17 16 14 12 8 5 1 357 351 344 335 324 312
96 100 97 92 87 79 69 71 58 66 63 66 78 73 68 71 70 68 61 52 44 37 29 26 25 21 19 18 16 15 14 14 12 10 7 3 0 357 352 348 343 335 327
97 99 94 87 86 85 73 70 74 62 61 70 87 75 63 65 67 61 57 48 38 30 23 21 18 14 15 14 12 10 9 8 6 4 2 360 357 354 351 347 343 340 334
95 98 99 88 83 84 80 81 85 68 48 32 83 73 49 52 66 58 51 45 33 22 16 14 12 12 7 11 8 7 4 1 359 357 356 354 351 349 346 343 341 339 334
95 100 99 95 88 88 72 59 71 85 54 27 90 109 78 17 19 37 39 39 27 13 10 6 9 11 10 10 6 7 3 358 355 352 349 347 344 342 340 338 337 334 332
87 96 97 98 89 89 85 70 69 91 95 45 43 104 119 137 324 341 22 31 18 7 359 355 11 13 19 17 6 3 0 355 351 348 344 341 338 336 334 332 331 329 328
90 94 97 98 93 90 88 79 70 79 101 91 54 44 77 118 93 340 337 359 1 354 350 356 3 12 22 17 5 360 355 352 348 344 340 336 333 331 329 327 326 324 323
89 95 98 99 96 93 91 88 80 73 75 91 91 83 68 59 65 99 320 327 334 322 330 340 2 14 23 15 359 349 351 348 344 339 335 332 329 327 325 323 322 320 319
100 98 99 99 100 100 98 95 91 86 83 84 81 79 95 95 78 86 260 296 307 303 314 326 14 19 19 10 354 347 347 343 339 335 332 329 327 325 323 321 319 317 316
132 128 118 112 108 108 105 102 97 92 90 93 93 86 84 90 110 124 164 274 293 294 306 312 2 30 13 3 344 344 343 339 335 332 331 329 327 324 322 319 318 317 315
144 140 129 122 120 117 114 108 102 100 99 100 100 100 96 86 85 102 136 188 300 297 288 285 320 40 11 350 336 343 336 333 330 331 329 328 326 323 322 320 319 318 316
144 140 134 130 127 124 123 119 113 113 112 107 111 109 108 102 95 93 104 144 208 298 292 281 296 344 356 335 330 333 328 323 328 328 327 325 323 322 322 321 320 318 317
146 146 142 138 135 133 132 124 122 127 123 125 129 127 125 125 118 115 116 121 165 211 275 277 263 308 327 324 324 324 315 322 322 322 323 321 321 321 320 319 318 318 317
153 155 153 149 147 147 144 138 141 145 145 150 153 155 161 157 157 163 164 175 195 202 268 284 263 305 305 315 318 309 308 304 309 316 316 317 318 318 317 316 316 316 315
160 159 156 155 157 157 157 156 160 164 168 176 181 181 191 184 188 191 191 206 221 224 249 288 297 309 309 312 309 309 310 310 304 308 312 314 313 313 313 313 313 313 312
163 162 162 165 167 167 168 172 171 175 184 191 192 197 202 198 211 206 206 216 225 241 237 271 292 301 303 308 310 307 301 295 301 307 310 309 310 310 311 310 310 309 309
169 171 172 172 171 173 176 178 180 184 192 202 205 208 209 209 216 213 219 222 225 237 246 267 285 297 302 304 305 315 315 311 308 307 303 308 309 310 308 306 306 306 304
176 174 171 172 173 178 187 185 188 191 198 210 217 220 221 223 227 225 226 221 221 233 247 266 284 294 300 313 316 316 311 312 304 294 304 308 307 302 301 301 303 301 302
175 174 179 179 184 195 203 201 195 198 205 213 223 225 227 229 239 247 251 251 243 236 236 252 281 288 297 306 310 310 311 312 312 314 316 309 304 301 300 295 300 305 306
178 183 187 188 197 208 208 209 206 199 208 216 221 223 229 225 221 234 251 260 263 265 261 266 276 282 294 303 307 308 308 307 302 307 308 301 303 301 301 302 307 307 307
186 190 194 197 203 215 215 215 213 207 212 221 222 221 227 231 224 228 235 243 244 248 256 264 267 276 284 293 298 302 306 303 296 294 300 296 301 303 308 304 303 303 308
192 196 194 198 207 220 220 220 216 207 221 230 227 224 227 233 240 244 243 243 250 251 260 263 268 279 290 300 305 306 305 305 302 305 304 286 306 316 305 294 299 309 314
196 195 203 205 211 220 223 223 221 210 224 234 232 232 233 236 242 245 240 237 249 253 246 256 270 285 294 297 299 293 286 290 297 301 309 313 309 320 308 292 305 308 306